Find Starlink 5842

NORAD ID: 56491 Int'l Des: 2023-064 Owner: SPXS Country: US Constellation: starlink operational
LEOCIRCULAR

Live Position

Loading 3D Globe...

About Starlink 5842

Description loading...

Upcoming Passes

Passes for default location (London). Set your location on the main map for personalized predictions.

Altitude History

Loading altitude history...

Two-Line Element Set

1 56491U 23064AV 26125.71017134 -.00002340 00000-0 -18839-3 0 9993
2 56491 70.0001 320.6834 0002385 265.9941 94.0946 14.98330692164777
Epoch: May 5, 2026 • Age: 19 hours

Current Status

Altitude 594.3 km
Velocity 7.56 km/s
Sub-Earth Point -63.97°S, 145.29°E
Launch Date May 10, 2023
Age 2.9 years
Type internet

Technical Details

Classification Payload
Mass 305.00 kg
Dry Mass 290.00 kg
Total Mass 305.00 kg
Length 0.20 m
Diameter 2.80 m
Span 9.00 m
Shape Box + pan
Manufacturer SPXS
Bus Type Starlink
Phase Status In Orbit
Owner/State SPXS/US

Most Searched